This demonstration page uses our WeatherBlox Daily Observations layout. Learn more.

Left ArrowRight Arrow

Hourly Observations for May 28, 2021

Temp ( °F °C ) Dew Point ( °F °C ) Humidity (%) Winds ( mph kmh ) Pressure ( in mb ) Visibility ( mi km ) Precip ( " mm )
12:53 am 00:53 Clear 75 23.9 64 17.8 69 69 SSE 10 17 29.80 1009 10 16 0.00 0.00
1:53 am 01:53 Clear 74 23.3 64 17.8 71 71 SE 13 20 29.79 1009 10 16 0.00 0.00
2:53 am 02:53 Clear 73 22.8 64 17.8 74 74 SE 10 17 29.78 1008 10 16 0.00 0.00
3:53 am 03:53 Clear 72 22.2 63 17.2 73 73 SE 12 19 29.76 1008 10 16 0.00 0.00
4:53 am 04:53 Clear 71 21.7 62 16.7 73 73 SE 9 15 29.76 1008 10 16 0.00 0.00
5:53 am 05:53 Clear 69 20.6 62 16.7 78 78 ESE 7 11 29.76 1008 10 16 0.00 0.00
6:53 am 06:53 Sunny 67 19.4 62 16.7 84 84 ENE 15 24 29.81 1009 10 16 0.00 0.00
7:53 am 07:53 Sunny 72 22.2 63 17.2 73 73 E 9 15 29.83 1010 10 16 0.00 0.00
8:53 am 08:53 Sunny 76 24.4 62 16.7 62 62 E 14 22 29.84 1011 10 16 0.00 0.00
9:53 am 09:53 Mostly Sunny 79 26.1 64 17.8 60 60 ESE 17 28 29.85 1011 10 16 0.00 0.00
10:53 am 10:53 Sunny 82 27.8 64 17.8 55 55 SE 17 28 29.85 1011 10 16 0.00 0.00
11:53 am 11:53 Sunny 85 29.4 63 17.2 48 48 ESE 14 22 29.85 1011 10 16 0.00 0.00
12:53 pm 12:53 Sunny 87 30.6 63 17.2 45 45 ESE 15 24 29.84 1011 10 16 0.00 0.00
1:53 pm 13:53 Mostly Sunny 90 32.2 62 16.7 39 39 E 9 15 29.82 1010 10 16 0.00 0.00
2:53 pm 14:53 Mostly Sunny 93 33.9 60 15.6 33 33 E 9 15 29.79 1009 10 16 0.00 0.00
3:53 pm 15:53 Mostly Cloudy 93 33.9 59 15 32 32 E 10 17 29.77 1008 10 16 0.00 0.00
4:53 pm 16:53 Sunny 96 35.6 59 15 29 29 E 16 26 29.73 1007 10 16 0.00 0.00
5:53 pm 17:53 Sunny 90 32.2 64 17.8 42 42 E 22 35 29.72 1006 10 16 0.00 0.00
6:26 pm 18:26 Partly Cloudy with Thunderstorms 86 30 66 18.9 51 51 E 26 43 29.63 1004 10 16 0.00 0.00
6:41 pm 18:41 Sunny with Nearby Thunderstorms 83 28.3 66 18.9 57 57 ENE 25 41 29.64 1004 10 16 0.00 0.00
6:53 pm 18:53 Windy with Storms Likely 81 27.2 67 19.4 62 62 E 25 41 29.72 1006 8 13 0.00 0.00
7:35 pm 19:35 Mostly Cloudy with Nearby Thunderstorms 71 21.7 62 16.7 73 73 ESE 23 37 29.77 1008 10 16 0.02 0.51
7:51 pm 19:51 Cloudy 72 22 61 16 69 69 E 18 30 29.74 1007 10 16 0.02 0.51
7:53 pm 19:53 Cloudy 73 22.8 62 16.7 69 69 E 20 31 29.75 1008 10 16 0.02 0.51
8:00 pm 20:00 Mostly Cloudy with Nearby Thunderstorms 75 23.9 65 18.3 71 71 ESE 24 39 29.72 1006 10 16 0.00 0.00
8:15 pm 20:15 Mostly Sunny 75 23.9 64 17.8 69 69 ESE 20 31 29.71 1006 10 16 0.00 0.00
8:53 pm 20:53 Clear 75 23.9 66 18.9 74 74 SE 14 22 29.78 1009 10 16 0.00 0.00
9:53 pm 21:53 Clear 72 22.2 64 17.8 76 76 ESE 10 17 29.78 1009 10 16 0.00 0.00
10:53 pm 22:53 Clear 72 22.2 62 16.7 71 71 NE 12 19 29.89 1012 10 16 0.00 0.00
11:10 pm 23:10 Partly Cloudy with Nearby Thunderstorms 73 22.8 61 16.1 66 66 NNE 28 44 29.95 1014 10 16 0.00 0.00
11:53 pm 23:53 Mostly Clear 68 20 54 12.2 61 61 ENE 20 31 29.91 1013 10 16 0.00 0.00

Powered by AerisWeather